TimeMST,TemperatureF,Dew PointF,Humidity,Sea Level PressureIn,VisibilityMPH,Wind Direction,Wind SpeedMPH,Gust SpeedMPH,PrecipitationIn,Events,Conditions,WindDirDegrees,DateUTC
12:57 AM,91.9,61.0,35,29.70,10.0,South,5.8,-,N/A,,Scattered Clouds,190,2013-07-15 07:57:00
1:57 AM,90.0,61.0,38,29.70,10.0,SSE,4.6,-,N/A,,Scattered Clouds,150,2013-07-15 08:57:00
2:57 AM,89.1,61.0,39,29.69,10.0,SSE,4.6,-,N/A,,Scattered Clouds,160,2013-07-15 09:57:00
3:57 AM,88.0,62.1,42,29.69,10.0,SSE,8.1,-,N/A,,Mostly Cloudy,160,2013-07-15 10:57:00
4:57 AM,88.0,62.1,42,29.69,10.0,SSE,11.5,-,N/A,,Mostly Cloudy,160,2013-07-15 11:57:00
5:57 AM,88.0,61.0,40,29.70,10.0,SE,6.9,-,N/A,,Mostly Cloudy,130,2013-07-15 12:57:00
6:57 AM,91.0,59.0,34,29.71,10.0,SE,4.6,-,N/A,,Mostly Cloudy,140,2013-07-15 13:57:00
7:57 AM,93.0,59.0,32,29.73,10.0,SE,3.5,-,N/A,,Scattered Clouds,140,2013-07-15 14:57:00
8:57 AM,97.0,59.0,28,29.73,10.0,South,9.2,-,N/A,,Scattered Clouds,180,2013-07-15 15:57:00
9:57 AM,100.0,57.0,24,29.73,10.0,South,9.2,-,N/A,,Partly Cloudy,190,2013-07-15 16:57:00
10:57 AM,102.9,57.0,22,29.72,10.0,South,8.1,-,N/A,,Partly Cloudy,190,2013-07-15 17:57:00
11:57 AM,107.1,55.9,19,29.70,10.0,SW,10.4,-,N/A,,Partly Cloudy,230,2013-07-15 18:57:00
12:57 PM,107.1,55.9,19,29.68,10.0,WSW,6.9,-,N/A,,Partly Cloudy,240,2013-07-15 19:57:00
1:57 PM,109.9,54.0,16,29.65,10.0,SSW,13.8,-,N/A,,Partly Cloudy,200,2013-07-15 20:57:00
2:57 PM,109.0,52.0,15,29.62,10.0,Variable,6.9,-,N/A,,Scattered Clouds,0,2013-07-15 21:57:00
3:57 PM,111.9,53.1,14,29.59,10.0,WSW,12.7,24.2,N/A,,Partly Cloudy,240,2013-07-15 22:57:00
4:57 PM,111.9,48.9,12,29.58,10.0,WSW,9.2,-,N/A,,Partly Cloudy,250,2013-07-15 23:57:00
5:57 PM,111.0,48.9,13,29.57,10.0,West,8.1,-,N/A,,Scattered Clouds,270,2013-07-16 00:57:00
6:23 PM,107.6,53.6,17,29.59,10.0,SSW,17.3,-,N/A,,Scattered Clouds,210,2013-07-16 01:23:00
6:57 PM,106.0,53.1,17,29.59,10.0,SSW,13.8,-,N/A,,Scattered Clouds,210,2013-07-16 01:57:00
7:57 PM,100.9,54.0,21,29.61,10.0,SSW,10.4,-,N/A,,Mostly Cloudy,210,2013-07-16 02:57:00
8:57 PM,98.1,57.0,25,29.65,10.0,West,9.2,-,N/A,,Mostly Cloudy,260,2013-07-16 03:57:00
9:57 PM,96.1,57.0,27,29.67,9.0,WSW,6.9,-,N/A,,Mostly Cloudy,250,2013-07-16 04:57:00
10:57 PM,93.9,57.0,29,29.68,10.0,WSW,8.1,-,N/A,,Mostly Cloudy,250,2013-07-16 05:57:00
11:57 PM,91.9,59.0,33,29.70,10.0,WSW,6.9,-,N/A,,Mostly Cloudy,250,2013-07-16 06:57:00